Location: Stull Observatory
(42.2506°N, 77.7903°W)
Time: 00:50:17
(UTC-04:00)

Daily predictions for brighter satellites

Satellite Brightness Start Highest point End
(mag) Time Altitude Azimuth Time Altitude Azimuth Time Altitude Azimuth
Okean 1 4.0 00:00:47 10° N 00:03:54 50° NNE 00:03:54 50° NNE
Meteor 1-18 Rocket 4.2 00:02:38 10° NNW 00:08:21 76° W 00:09:08 65° SSW
Cosmos 1782 Rocket 3.9 00:09:07 60° WNW 00:09:07 60° WNW 00:13:20 10° N
Lacrosse 5 rocket 4.1 00:11:49 10° WNW 00:14:08 16° NNW 00:16:31 10° NNE
Cosmos 405 Rocket 4.1 00:15:24 10° NNW 00:17:52 35° NW 00:17:52 35° NW
Cosmos 1980 Rocket 4.4 00:21:57 11° E 00:21:57 11° E 00:22:48 10° ENE
Cosmos 1633 4.2 00:25:24 33° N 00:25:24 33° N 00:27:28 10° N
APEX 4.2 00:20:23 10° NNW 00:24:04 48° NNE 00:24:04 48° NNE
CZ-4B R/B 4.2 00:21:24 10° N 00:26:09 45° WNW 00:26:59 41° W
ALOS 2 3.1 00:28:20 55° NNE 00:28:20 55° NNE 00:32:01 10° N
CZ-4B R/B 4.4 00:30:50 11° NE 00:30:50 11° NE 00:31:24 10° NE
Cosmos 1975 Rocket 4.2 00:26:53 10° NNW 00:30:38 37° WNW 00:30:38 37° WNW
Cosmos 2151 Rocket 4.1 00:40:41 58° N 00:40:41 58° N 00:44:18 10° N
S3M 4.1 00:39:36 10° NNW 00:45:36 58° W 00:46:18 54° WSW
Cosmos 2297 Rocket 2.2 00:42:19 10° NNW 00:48:00 73° ENE 00:48:16 72° E
Cosmos 1697 Rocket 3.6 00:49:13 35° E 00:49:13 35° E 00:53:27 10° NE
Cosmos 883 Rocket 4.3 00:42:12 10° N 00:48:25 80° E 00:48:56 73° SE
Cosmos 1536 Rocket 4.3 00:50:20 10° NNW 00:53:43 50° NNW 00:53:43 50° NNW
GP-B 3.8 00:55:04 10° N 00:58:32 52° NNE 00:58:32 52° NNE
Cosmos 1300 Rocket 4.3 01:02:17 51° N 01:02:17 51° N 01:05:36 10° N
Cosmos 921 Rocket 4.5 01:04:45 30° NE 01:04:45 30° NE 01:07:15 10° NNE
ATLAS CENTAUR R/B 3.2 01:05:54 24° NW 01:06:07 24° NW 01:09:18 10° N
Cosmos 1371 Rocket 4.0 01:07:58 77° NNW 01:07:58 77° NNW 01:12:56 10° NNE
Cosmos 2082 3.7 01:05:07 10° NNW 01:10:39 72° W 01:10:39 72° W
Cosmos 2278 3.7 01:12:16 73° W 01:12:31 75° WNW 01:18:14 10° NNE
ISS -0.7 01:12:29 10° NW 01:14:33 16° N 01:16:38 10° NE
Cosmos 1190 Rocket 4.0 01:10:32 10° NNW 01:15:26 76° NNE 01:15:26 76° NNE
USA 234 4.3 01:16:23 10° ENE 01:21:04 30° ESE 01:21:04 30° ESE
CZ-2C R/B 4.4 01:25:43 27° W 01:25:43 27° W 01:29:24 10° NW
Cosmos 676 Rocket 4.3 01:20:58 10° NNW 01:26:10 60° ENE 01:26:14 60° ENE
Mayak -0.2 01:23:39 10° N 01:26:48 43° NNW 01:26:48 43° NNW
Cosmos 1536 4.3 01:30:56 34° NW 01:30:56 34° NW 01:33:41 10° N
Cosmos 1624 Rocket 4.3 01:32:23 60° WNW 01:32:26 60° WNW 01:37:44 10° NNE
Cosmos 1745 Rocket 4.4 01:32:55 46° ESE 01:33:34 48° E 01:39:26 10° NNE
Cosmos 2227 Rocket 3.1 01:31:45 10° NW 01:36:06 35° W 01:36:06 35° W
Cosmos 407 Rocket 3.7 01:34:07 10° NNW 01:38:54 65° WNW 01:38:54 65° WNW
USA 229 DEB 3.6 01:38:23 65° SW 01:39:31 88° WNW 01:46:32 10° NE
USA 229 3.6 01:38:31 66° SW 01:39:38 89° NW 01:46:37 10° NE
Okean 1 Rocket 4.1 01:41:29 41° NW 01:41:29 41° NW 01:44:47 10° N
CZ-2C R/B 4.1 01:36:54 10° NNW 01:41:01 25° WNW 01:42:03 23° W
Cosmos 2315 Rocket 4.2 01:35:54 10° NNW 01:41:55 54° W 01:42:16 53° WSW
Okean 1-7 Rocket 4.4 01:38:08 10° NNW 01:41:23 47° NNW 01:41:23 47° NNW
SL-08 R/B 4.4 01:42:28 65° SE 01:43:06 71° E 01:49:24 10° NNE
Meteor 1-23 Rocket 4.5 01:38:30 10° NNW 01:43:52 55° W 01:43:52 55° W
Cosmos 1140 Rocket 3.7 01:40:24 10° NNW 01:45:32 61° ENE 01:45:42 60° ENE
NOSS 3-1 (A) 4.3 01:46:02 34° ESE 01:46:02 34° ESE 01:51:19 10° NE
Cosmos 1455 Rocket 4.1 01:52:30 40° ENE 01:52:30 40° ENE 01:55:53 10° NNE
Cosmos 1656 4.3 01:53:47 42° W 01:54:30 44° WNW 01:59:47 10° NNE
Cosmos 2263 Rocket 4.2 01:51:10 10° N 01:55:44 24° NE 02:00:16 10° ESE
CZ-4B R/B 3.7 02:04:25 23° NW 02:04:25 23° NW 02:05:55 10° NNW
CZ-4C R/B 2.9 01:55:53 10° NW 02:03:04 80° NE 02:06:48 35° SE
Cosmos 2360 Rocket 4.5 02:02:23 11° ESE 02:03:36 12° E 02:05:24 10° ENE
Cosmos 1980 Rocket 2.0 02:03:42 84° SSW 02:03:54 90° NW 02:09:33 10° NNE
Cosmos 1743 4.1 02:08:03 34° NE 02:08:03 34° NE 02:10:43 10° NNE
Cosmos 1954 Rocket 4.0 02:02:25 10° NNW 02:07:16 68° WNW 02:07:16 68° WNW
Cosmos 1238 Rocket 3.7 02:04:10 10° NNW 02:09:18 67° W 02:09:20 67° W
PSLV R/B 3.9 02:06:49 10° NNE 02:11:18 74° ENE 02:11:18 74° ENE
Cosmos 1975 3.7 02:23:32 46° NNW 02:23:32 46° NNW 02:26:39 10° N
Cosmos 1602 Rocket 4.2 02:20:54 10° N 02:25:15 49° ENE 02:25:20 49° E
Cosmos 1437 Rocket 3.9 02:27:15 40° ENE 02:27:15 40° ENE 02:30:43 10° NNE
Cosmos 1452 Rocket 3.9 02:28:49 48° W 02:29:14 50° WNW 02:34:24 10° N
H-2A R/B 3.2 02:25:24 10° N 02:28:35 45° NNW 02:28:35 45° NNW
NOSS 3-1 (C) 3.2 02:29:04 65° SW 02:30:02 85° NW 02:36:33 10° NE
Cosmos 2297 Rocket 4.2 02:28:05 10° WNW 02:30:03 15° W 02:30:03 15° W
USA 81 3.9 02:26:16 10° N 02:31:35 88° E 02:32:01 76° SSE
Cosmos 1697 Rocket 3.8 02:30:56 30° W 02:32:19 33° WNW 02:37:24 10° N
Meteor 1-21 4.4 02:28:36 10° N 02:34:11 64° ENE 02:35:37 47° SE
Cosmos 1850 Rocket 3.9 02:34:59 10° NNW 02:40:21 79° WSW 02:40:44 74° SSW
Nadezhda 1 Rocket 4.1 02:34:45 10° NNW 02:40:42 56° W 02:41:30 53° WSW
Cosmos 1709 Rocket 3.9 02:42:48 55° S 02:44:14 82° E 02:50:22 10° N
SL-16 R/B 2.2 02:44:16 59° SSE 02:45:10 70° ESE 02:50:49 10° NNE
Helios 1A Rocket 3.0 02:43:27 10° NNE 02:47:07 72° NNE 02:47:07 72° NNE
BREEZE M DEB (TANK) 3.4 02:48:29 45° WSW 02:50:02 74° NNW 02:53:00 10° ENE
ISS -1.5 02:49:05 10° NW 02:51:51 25° NNE 02:54:37 10° ENE
Cosmos 2322 Rocket 2.1 02:53:12 60° S 02:54:18 83° ESE 03:00:02 10° NNE
Cosmos 1110 Rocket 4.2 02:54:55 51° SSE 02:55:49 59° ESE 03:00:55 10° NNE
Meteor 1-4 Rocket 4.4 02:55:54 23° E 02:56:02 23° E 02:58:53 10° NE
SL-16 R/B 3.1 02:55:29 18° SE 03:00:02 55° ENE 03:06:08 10° N
Cosmos 1626 Rocket 3.7 02:57:41 10° NNW 03:01:42 58° WNW 03:01:42 58° WNW
USA 234 3.3 02:58:53 10° NE 03:05:26 76° NW 03:08:23 35° WSW
Cosmos 1666 3.5 03:07:17 43° NW 03:07:17 43° NW 03:10:28 10° N
Resurs 1-4 Rocket 2.5 03:13:05 10° NNE 03:18:17 55° E 03:20:23 33° SSE
Cosmos 2184 Rocket 4.3 03:15:20 30° SSE 03:18:25 62° E 03:24:30 10° NNE
IRS-1C 4.1 03:13:08 10° NNE 03:18:31 81° ESE 03:20:14 45° S
Cosmos 2181 Rocket 4.0 03:13:22 10° NNW 03:19:43 67° W 03:22:06 40° SSW
Cosmos 1461 4.2 03:16:39 10° NW 03:19:15 29° WNW 03:19:15 29° WNW
Cosmos 1825 Rocket 3.7 03:17:43 10° N 03:22:08 70° E 03:23:29 42° SSE
Cosmos 1758 Rocket 4.2 03:19:03 10° N 03:23:18 51° E 03:25:18 28° SE
ARIANE 5 R/B 3.0 03:19:21 10° NNE 03:24:21 53° E 03:26:38 30° SSE
BREEZE-M DEB (TANK) 3.9 03:21:56 10° W 03:27:48 33° NNW 03:30:23 10° NE
Meteor 2-13 Rocket 4.4 03:26:01 36° S 03:28:41 89° E 03:34:52 10° N
ADEOS Rocket 3.0 03:23:02 10° N 03:29:19 68° WNW 03:31:34 39° SW
ATLAS 2AS CENTAUR R/B 3.7 03:26:53 25° S 03:31:10 47° ESE 03:38:50 10° NE
BREEZE M DEB (TANK) 2.5 03:32:30 57° NNE 03:32:30 57° NNE 03:35:55 10° ESE
SL-08 ROCKET BODY 4.4 03:31:22 38° SSW 03:33:51 73° W 03:39:57 10° N
NPP 3.9 03:29:18 10° N 03:34:32 54° WNW 03:36:18 38° SW
Lacrosse 5 rocket 4.4 03:33:09 10° NNW 03:35:31 15° NNE 03:37:58 10° ENE
Cosmos 1842 4.1 03:32:20 10° NNW 03:35:25 34° WNW 03:35:25 34° WNW
NOSS 3-1 (A) 4.1 03:33:28 26° W 03:36:24 45° NW 03:42:44 10° NNE
Cosmos 1331 Rocket 4.0 03:36:02 43° SW 03:37:38 67° WNW 03:42:48 10° NNE
SL-08 R/B 3.6 03:37:31 42° WSW 03:37:56 43° W 03:42:20 10° NNW
CZ-2D R/B 2.2 03:32:42 10° NNE 03:38:13 82° ESE 03:40:47 33° S
Cosmos 2228 3.9 03:36:56 25° SSE 03:38:58 44° E 03:43:02 10° NNE
COBE Rocket 4.4 03:34:01 10° N 03:38:59 48° WNW 03:40:35 36° WSW
ERS-1 4.4 03:34:46 10° NNE 03:39:52 89° ESE 03:41:54 37° SSW
Cosmos 2263 Rocket 2.3 03:34:27 10° NNW 03:40:02 57° WSW 03:42:29 32° S
UNKNOWN OBJECT B 4.1 03:36:43 10° NNE 03:40:13 33° E 03:42:04 22° SE
Cosmos 220 Rocket 4.1 03:37:49 10° NNW 03:41:53 48° WSW 03:42:06 47° WSW
NOSS 2-3 (E) 4.1 03:41:49 38° S 03:43:32 64° ESE 03:48:53 10° NE
Cosmos 2360 Rocket 2.1 03:44:09 35° SSW 03:46:41 88° ESE 03:52:22 10° NNE
Cosmos 1980 Rocket 4.3 03:45:28 10° W 03:48:43 16° NW 03:52:07 10° N
COSMOS 2428 3.7 03:45:35 19° SSE 03:49:16 41° ESE 03:54:38 10° NE
Cosmos 44 2.9 03:44:56 10° NW 03:49:19 81° WSW 03:53:49 10° SSE
DELTA 2 R/B (1) 4.0 03:49:16 34° SSW 03:51:02 46° SSE 03:56:20 10° E
CZ-4C R/B 3.9 03:45:29 10° WNW 03:51:12 24° WSW 03:51:52 24° WSW
Cosmos 2219 Rocket 3.9 03:46:51 10° SSE 03:51:24 26° ESE 03:55:59 10° NE
Cosmos 2074 Rocket 4.0 03:49:38 30° SSW 03:52:55 69° W 03:59:14 10° N
OAO 3 Rocket 4.0 03:54:41 31° S 03:55:14 32° S 03:59:34 10° ESE
Cosmos 1486 Rocket 3.9 03:51:20 10° NNW 03:56:40 81° WSW 04:01:30 12° SSE
Cosmos 2058 Rocket 3.1 03:56:09 30° S 03:58:21 85° E 04:02:54 10° N
Cosmos 972 Rocket 4.5 03:55:44 21° S 03:58:50 52° ESE 04:03:39 10° NNE
Cosmos 1953 Rocket 3.6 03:55:17 10° NNW 03:59:42 63° W 04:01:44 31° SSW
Cosmos 1844 Rocket 3.7 03:55:12 10° NNW 04:00:42 48° ENE 04:06:11 10° SE
CBERS 1 LM4 rocket 4.4 03:58:38 10° N 04:03:20 62° WNW 04:05:37 30° SW
ATLAS 3B R/B 3.5 03:57:32 10° NNW 04:04:07 51° NE 04:10:26 10° ESE
Centaur D AC-29 3.3 04:03:54 16° S 04:05:08 18° SSE 04:11:02 10° ESE
MOZ.5/SAFIR/RUBIN 5/SL-8 3.7 04:01:10 14° SSE 04:05:12 86° ENE 04:09:52 10° NNW
MOS 1 Rocket 3.1 04:01:08 10° N 04:05:43 83° WNW 04:07:59 28° SSW
Meteor 2-5 Rocket 3.7 04:02:46 10° N 04:08:26 88° ENE 04:14:12 10° S
Cosmos 2333 Rocket 3.8 04:03:41 10° SSE 04:08:28 28° ESE 04:13:15 10° NE
Cosmos 1354 Rocket 4.3 04:03:47 10° NNW 04:09:05 69° ENE 04:14:22 10° SSE
Cosmos 2322 3.7 04:06:53 27° SW 04:10:03 74° WNW 04:15:45 10° NNE
BREEZE M DEB (TANK) 4.1 04:08:03 10° NW 04:10:06 24° N 04:13:44 10° ENE
Cosmos 2154 Rocket 4.0 04:07:32 17° S 04:12:32 88° E 04:18:51 10° N
Okean O Rocket 4.1 04:10:33 10° NE 04:13:41 19° E 04:16:48 10° SE
SeaSat 1 4.1 04:10:10 10° ESE 04:14:38 36° NE 04:19:08 10° N
Cosmos 1610 Rocket 4.5 04:12:36 22° SSW 04:16:43 67° W 04:22:51 10° N
NOSS 2-3 (C) 4.0 04:14:04 27° SW 04:16:44 71° NW 04:22:17 10° NNE
Meteor 1-24 Rocket 4.1 04:11:39 10° N 04:17:00 63° ENE 04:22:30 10° SSE
SL-8 R/B 3.7 04:14:20 26° WSW 04:17:03 86° SSE 04:21:54 10° ENE
Iridium 4 Rocket 4.1 04:18:26 21° SSW 04:22:08 51° W 04:27:39 10° N
Cosmos 1707 3.0 04:19:18 10° NNW 04:23:02 48° W 04:25:01 24° SSW
Cosmos 1726 Rocket 4.3 04:21:10 25° SW 04:23:02 37° WNW 04:27:09 10° N
Cosmos 2278 Rocket 4.2 04:19:33 10° N 04:24:35 32° NE 04:29:36 10° ESE
USA 238 DEB 4.5 04:18:20 10° NNW 04:25:20 59° NE 04:32:23 10° SE
USA 238 4.5 04:18:27 10° NNW 04:25:27 58° NE 04:32:29 10° SE
Cosmos 1766 3.6 04:22:42 14° S 04:25:58 62° E 04:29:53 10° NNE
ADEOS 4.0 04:21:59 10° N 04:26:59 47° WNW 04:30:19 20° SW
ISS -3.9 04:25:19 10° WNW 04:28:33 63° SW 04:31:46 10° SE
SL-16 R/B 3.9 04:26:08 12° W 04:29:50 20° NW 04:34:00 10° N
Cosmos 44 Rocket 4.0 04:26:29 10° NW 04:30:36 30° WSW 04:34:04 13° S
Meteor 1-4 Rocket 4.2 04:30:12 17° W 04:31:07 19° WNW 04:33:44 10° NNW
Cosmos 1607 4.0 04:25:04 10° NW 04:31:30 74° WSW 04:37:56 10° SSE
Cosmos 2341 Rocket 4.1 04:25:23 10° S 04:31:41 89° ESE 04:38:06 10° N
Cosmos 1378 3.5 04:29:47 10° NNW 04:33:21 44° W 04:35:39 19° SSW
IRS-1D 4.5 04:30:49 10° N 04:35:07 30° WNW 04:38:05 17° WSW
USA 161 1.8 04:33:02 10° SSE 04:36:02 72° ENE 04:38:59 10° N
H-2A R/B 4.0 04:16:33 10° W 04:37:20 34° SW 04:42:23 10° SSE
Cosmos 2322 Rocket 4.1 04:35:18 10° W 04:39:04 18° NW 04:42:52 10° N
Cosmos 2333 4.2 04:34:25 16° SSW 04:39:06 86° WNW 04:44:50 10° NNE
CZ-2D R/B 3.8 04:37:12 10° N 04:41:25 51° WNW 04:44:34 16° SW
SL-16 R/B 3.6 04:40:35 16° SW 04:43:57 25° W 04:48:59 10° NW
Cosmos 1844 3.7 04:42:52 10° NNW 04:48:30 88° ENE 04:54:10 10° SSE
Cosmos 1503 Rocket 4.2 04:43:36 10° NNW 04:48:46 54° WSW 04:53:56 10° S
Cosmos 2218 Rocket 4.3 04:47:59 10° S 04:54:12 71° E 05:00:32 10° NNE
Cosmos 1674 4.2 04:52:27 10° N 04:56:04 39° ENE 04:59:41 10° SSE
Cosmos 1340 Rocket 3.2 04:52:52 10° NNW 04:56:38 41° W 05:00:20 10° SSW
Resurs 1-4 Rocket 3.6 04:53:52 10° NNW 04:57:42 21° WNW 05:01:28 10° WSW
ADEOS II 2.3 04:52:28 10° NNE 04:57:45 77° ESE 05:03:00 10° S
Cosmos 1356 Rocket 3.5 04:54:11 10° N 04:58:15 78° E 05:02:14 10° SSE
ERBS 4.4 04:58:28 10° S 05:01:12 22° SE 05:03:57 10° ENE
Cosmos 1805 3.2 04:57:44 10° S 05:01:38 88° W 05:05:35 10° N
Landsat 4 4.4 04:59:20 10° SSE 05:03:00 58° ENE 05:06:40 10° N
ARIANE 5 R/B 4.1 04:59:23 10° NNW 05:03:05 21° WNW 05:06:49 10° WSW
Meteor 1-22 Rocket 4.5 04:57:37 10° SSW 05:03:11 58° WNW 05:09:03 10° N
PSLV R/B 3.9 05:02:20 10° NNE 05:06:43 68° ESE 05:11:04 10° S
BREEZE-M DEB (TANK) 2.5 05:05:01 11° WSW 05:07:48 86° NNW 05:14:09 10° ENE
Cosmos 1992 Rocket 4.3 05:07:25 10° SW 05:12:28 51° WNW 05:17:33 10° N
Cosmos 1271 Rocket 4.3 05:11:22 10° WSW 05:14:29 22° WNW 05:17:37 10° NNW
Lacrosse 5 rocket 2.0 05:11:25 10° NW 05:15:24 61° NE 05:19:38 10° ESE
CZ-2D R/B 4.1 05:14:29 10° NNW 05:17:34 15° WNW 05:20:38 10° W
Cosmos 1758 3.3 05:16:45 10° SSW 05:20:44 72° W 05:24:48 10° N
ATLAS 2AS CENTAUR R/B 3.6 05:14:44 10° WSW 05:22:15 48° NW 05:30:07 10° NNE
Cosmos 389 Rocket 3.9 05:21:43 10° SW 05:24:34 22° WNW 05:27:28 10° NNW
